CZ-6A DEB

Satellite information

Favourite Embed

Satellite Type and Status

DEBRISIN ORBIT

Key statistics

Satellite CZ-6A DEB at a glance.

Uptime

393

Days in orbit

Revolutions

≈ 14.2

Per day

Orbit

LEO

Low Earth Orbit

Inclination

89.0

Latest

Satellite identification and parameters

Extended collection of information and parameters for CZ-6A DEB.

Object identification

Identified? True

Debris? True

Object name: CZ-6A DEB

International designator: 2024-140CQ

Object number (NORAD): 60687

Object ID (CCSDS): 60687

Country: PEOPLES REPUBLIC OF CHINA (PRC)

Current information (Y/N): Y

RCS size: MEDIUM

Orbital parameters

Period: 101.617 minutes

Inclination: 89.0171 deg

SMA: 7213.381 km

Apoapsis: 879.001 km

Periapsis: 791.491 km

RAAN: 308.0047 deg

Eccentricy: 0.00606582

Argument of periapsis: 56.0282 deg

Mean anomaly: 304.665 deg

Mean motion: 14.17080264 rev/day

Mean motion (dot): 0.00001613 rev/day2

B* drag term: 0.00078045202 1/REarth

Two-line elements (TLE)

Creation date: Sept. 3, 2025, 2:21 a.m.

Reference frame: TEME

Reference center: EARTH

Epoch: Sept. 2, 2025, 4:19 p.m. UTC

TLE line 0: 0 CZ-6A DEB

TLE line 1: 1 60687U 24140CQ 25245.68055534 .00001613 00000-0 78045-3 0 9990

TLE line 2: 2 60687 89.0171 308.0047 0060658 56.0282 304.6650 14.17080264 55136

Live tracking on map

Real-time ground track for satellite CZ-6A DEB.

In-orbit conjunctions

A list of the most updated potential collisions computed for object CZ-6A DEB.

Target Orbit TCA Probability of collision Miss distance Type
NOAA 16 DEB SSO 2025-06-10 16:00:45 0.000117416 480.0 (m) DEBRIS
THOR BURNER 2 R/B SSO 2025-02-17 05:35:06 0.0008401943 747.0 (m) ROCKET BODY
CZ-4 DEB SSO 2024-12-31 13:15:15 0.0001875469 280.0 (m) DEBRIS
CZ-6A DEB LEO 2024-09-26 02:22:06 0.003339647 417.0 (m) DEBRIS
CZ-6A DEB LEO 2024-09-26 02:21:50 0.001569075 467.0 (m) DEBRIS

Associated space launch

18 Low Earth Orbit communication satellites with Ku, Q and V band payloads for the G60 constellation operated by Shanghai Spacecom Satellite Technology (SSST) with funding backed by the Shanghai local government. Initial constellation will consist of 1296 satellites by 2027 with long term plans to expand it to 12000 satellites.

CZ-6A DEB was lifted into orbit during the mission ‘Long March 6A | G60 Polar Group 01’, on board a Long March 6A space rocket.

The launch took place on Aug. 6, 2024, 6:42 a.m. from Launch Complex 9A.

For more information about the launch, click the button.

Launch to space Long March 6A | G60 Polar Group 01
Long March 6A | G60 Polar Group 01

Agency: N/A

Status: Launch Successful

Launch date: Aug. 6, 2024, 6:42 a.m. UTC

Rocket: Long March 6A

Launch pad: Launch Complex 9A

Location: Taiyuan Satellite Launch Center, People's Republic of China

...

Latest news about this satellite

News about space launch
Brightness of first Chinese broadband constellation satellites alarms astronomers

The first satellites of a Chinese broadband constellation are significantly brighter than those of Western systems, posing a new challenge for astronomers.

News about space launch
Chinese rocket stage breaks up into cloud of more than 700 pieces of space debris

HELSINKI — A Chinese Long March 6A rocket’s upper stage has fragmented into a cloud of over 700 pieces of space debris, adding to concerns about long-term orbital safety. China […]

News about space launch
China's Thousand Sails Megaconstellation Kicks Off with Dangerous Debris Field

China's Thousand Sails Megaconstellation Kicks Off with Dangerous Debris Field


Newsletter sign-up

Weekly statistics, charts and insights to help you stay on top of the space industry.